Skip Page Navigation
NASA JPL Caltech
NASA Logo - Jet Propulsion Laboratory + View the NASA Portal
+ Center for Near-Earth Object Studies
JPL Home Earth Solar System Stars & Galaxies Technology
JPL Solar System Dynamics
BODIES ORBITS EPHEMERIDES TOOLS PHYSICAL DATA DISCOVERY FAQ SITE MAP
JPL Small-Body Database Browser
Search: [ help ]  
136271 (2003 YT95)
Classification: Main-belt Asteroid          SPK-ID: 2136271
Ephemeris | Orbit Diagram | Orbital Elements | Mission Design | Physical Parameters | Discovery Circumstances ]

[ show orbit diagram ]
Orbital Elements at Epoch 2459000.5 (2020-May-31.0) TDB
Reference: JPL 23 (heliocentric ecliptic J2000)
 Element Value Uncertainty (1-sigma)   Units 
e .1321763517265672 3.7545e-08  
a 2.344915023244645 1.2517e-08 au
q 2.034972710363349 8.7928e-08 au
i 8.359172327020506 3.9451e-06 deg
node 100.4133546341373 2.9577e-05 deg
peri 245.0291472836431 3.3232e-05 deg
M 294.1986191615063 1.6422e-05 deg
tp 2459240.229564833749
(2021-Jan-25.72956483)
6.0612e-05 TDB
period 1311.562800664857
3.59
1.0501e-05
2.875e-08
d
yr
n .2744817097721198 2.1977e-09 deg/d
Q 2.654857336125941 1.4171e-08 au
  Orbit Determination Parameters
   # obs. used (total)      597  
   data-arc span      8744 days (23.94 yr)  
   first obs. used      1995-05-30  
   last obs. used      2019-05-08  
   planetary ephem.      DE431  
   SB-pert. ephem.      SB431-N16  
   condition code      0  
   norm. resid. RMS      .55837  
   source      ORB  
   producer      Otto Matic  
   solution date      2019-May-30 07:12:54  

Additional Information
 Earth MOID = 1.04307 au 
 Jupiter MOID = 2.72995 au 
 T_jup = 3.536 
[ show covariance matrix ]

Ephemeris | Orbit Diagram | Orbital Elements | Mission Design | Physical Parameters | Discovery Circumstances ]

Physical Parameter Table
Parameter Symbol Value Units Sigma Reference Notes
absolute magnitude H 16.1   n/a MPO436671  

136271 (2003 YT95)          Discovered 2003-Dec-19 by LINEAR at Socorro
Reference: 20060907/Numbers.arcLast Updated: 2006-09-10

Alternate Designations
 2003 YT95 = 2001 DJ6 
Ephemeris | Orbit Diagram | Orbital Elements | Mission Design | Physical Parameters | Discovery Circumstances ]
ABOUT SSD CREDITS/AWARDS PRIVACY/COPYRIGHT GLOSSARY LINKS
FirstGov 2020-Oct-29 03:04 UT
(server date/time)  
NASA Home Page
Site Manager:   Ryan S. Park
Webmaster  Alan B. Chamberlin